Date String (YYYY-MM-DD hh:mm:ss) UTC,Instrument flags,absolute air pressure of the measurement (hPa),sample flow rate (lpm),inlet stack bypass flow (lpm),air temperature of the measurement (°C),ambient temperature measured by the external sensor (°C),aerosol sample conditioner tube jacket temperature (°C),OPC LED temperature (°C),internal box temperature (°C),relative humidity of the measurement (%),span deviation,mass concentration of particles derived from Lorenz-Mie calculation of OPC scattering (μg/m³),mass concentration of particles derived from Lorenz-Mie calculation of OPC scattering (μg/m³),mass concentration of particles derived from Lorenz-Mie calculation of OPC scattering (μg/m³)
DateTimeUTC,F1_M11,P_M11,Q1_M11,Q2_M11,T1_M11,T2_M11,T3_M11,T4_M11,T5_M11,U1_M11,ZSPAN_M11,X0_M11,X2_M11,X1_M11
2023-07-15 20:00:00,SystemResetWarning,0835.2,4.99,000.00,029.0,026.8,000.0,037.2,030.6,33.1,0000.0,0012.19,0005.65,0005.01
2023-07-15 20:01:00,SystemResetWarning,0835.2,5.00,000.00,028.9,025.3,000.0,037.1,030.4,32.7,0000.0,0012.37,0005.66,0005.01
2023-07-15 20:02:00,SystemResetWarning,0835.3,5.00,000.00,028.9,024.9,000.0,037.0,030.2,32.9,0000.0,0012.83,0005.70,0005.02
2023-07-15 20:03:00,SystemResetWarning,0835.3,5.01,000.00,028.8,025.1,000.0,037.0,030.1,33.4,-002.2,0013.08,0005.73,0005.02
2023-07-15 20:04:00,SystemResetWarning,0835.3,5.02,000.00,028.7,025.5,000.0,037.1,030.1,33.1,-002.8,0013.33,0005.77,0005.02
2023-07-15 20:05:00,SystemResetWarning,0835.3,4.99,000.00,028.7,026.0,000.0,037.1,030.2,32.7,-002.1,0013.31,0005.77,0005.03
2023-07-15 20:06:00,SystemResetWarning,0835.2,4.99,000.00,028.7,026.5,000.0,037.1,030.3,32.8,-001.9,0013.26,0005.82,0005.04
2023-07-15 20:07:00,SystemResetWarning,0835.2,5.00,000.00,028.8,026.9,000.0,037.2,030.4,32.8,-000.9,0013.07,0005.82,0005.05
2023-07-15 20:08:00,SystemResetWarning,0835.2,5.01,000.00,028.8,027.2,000.0,037.2,030.5,33.2,-001.0,0012.85,0005.83,0005.05
2023-07-15 20:09:00,SystemResetWarning,0835.2,4.99,000.00,028.9,027.5,000.0,037.2,030.6,33.6,-000.7,0013.21,0005.92,0005.06
2023-07-15 20:10:00,SystemResetWarning,0835.2,5.00,000.00,028.9,027.7,000.0,037.2,030.7,33.7,0000.0,0013.49,0005.90,0005.06
2023-07-15 20:11:00,SystemResetWarning,0835.1,4.98,000.00,029.0,027.1,000.0,037.2,030.6,34.1,0000.0,0013.58,0005.90,0005.07
2023-07-15 20:12:00,SystemResetWarning,0835.1,5.00,000.00,028.9,025.5,000.0,037.1,030.4,33.3,0000.0,0013.56,0005.93,0005.09
2023-07-15 20:13:00,SystemResetWarning,0835.1,5.00,000.00,028.8,024.9,000.0,037.0,030.2,33.5,0000.0,0013.35,0005.92,0005.10
2023-07-15 20:14:00,SystemResetWarning,0835.1,5.01,000.00,028.7,025.1,000.0,037.0,030.1,33.6,0000.0,0013.14,0005.95,0005.12
2023-07-15 20:15:00,SystemResetWarning,0835.1,5.00,000.00,028.7,025.5,000.0,037.1,030.1,33.8,0000.0,0012.88,0005.95,0005.13
2023-07-15 20:16:00,SystemResetWarning,0835.0,5.00,000.00,028.7,026.0,000.0,037.1,030.2,33.2,0000.0,0012.95,0006.01,0005.14
2023-07-15 20:17:00,SystemResetWarning,0835.0,5.00,000.00,028.7,026.4,000.0,037.1,030.3,34.3,0000.0,0012.66,0006.01,0005.14
2023-07-15 20:18:00,SystemResetWarning,0834.9,4.99,000.00,028.8,026.8,000.0,037.1,030.4,35.3,0000.0,0012.68,0006.02,0005.15
2023-07-15 20:19:00,SystemResetWarning,0835.0,5.01,000.00,029.0,027.1,000.0,037.2,030.6,34.0,0000.0,0012.93,0006.03,0005.17
2023-07-15 20:20:00,SystemResetWarning,0835.0,4.98,000.00,029.2,027.4,000.0,037.2,030.7,33.0,0000.0,0013.13,0005.98,0005.18
2023-07-15 20:21:00,SystemResetWarning,0835.0,5.02,000.00,029.4,027.7,000.0,037.3,030.8,32.6,0000.0,0012.58,0006.03,0005.19
2023-07-15 20:22:00,SystemResetWarning,0835.1,5.00,000.00,029.5,027.3,000.0,037.3,030.8,32.7,0000.0,0012.17,0006.06,0005.20
2023-07-15 20:23:00,SystemResetWarning,0835.0,4.98,000.00,029.5,025.7,000.0,037.2,030.6,32.6,0000.0,0012.04,0006.04,0005.21
2023-07-15 20:24:00,SystemResetWarning,0835.0,5.01,000.00,029.5,024.9,000.0,037.1,030.4,32.6,0000.0,0011.95,0006.03,0005.20
2023-07-15 20:25:00,SystemResetWarning,0835.0,5.01,000.00,029.4,025.0,000.0,037.2,030.2,32.6,0000.0,0011.72,0005.98,0005.20
2023-07-15 20:26:00,SystemResetWarning,0835.0,5.00,000.00,029.3,025.4,000.0,037.3,030.2,32.5,0000.0,0011.43,0005.95,0005.20
2023-07-15 20:27:00,SystemResetWarning,0835.0,4.99,000.00,029.3,025.8,000.0,037.3,030.3,32.9,0000.0,0011.29,0005.91,0005.20
2023-07-15 20:28:00,SystemResetWarning,0835.0,4.99,000.00,029.3,026.3,000.0,037.4,030.4,33.4,0000.0,0012.20,0005.87,0005.20
2023-07-15 20:29:00,SystemResetWarning,0834.9,5.01,000.00,029.3,026.7,000.0,037.4,030.5,32.1,0000.0,0012.59,0005.85,0005.18
2023-07-15 20:30:00,SystemResetWarning,0834.9,4.99,000.00,029.4,027.1,000.0,037.5,030.6,32.2,0000.0,0012.59,0005.86,0005.17
2023-07-15 20:31:00,SystemResetWarning,0834.9,4.98,000.00,029.4,027.4,000.0,037.5,030.7,32.5,0000.0,0012.49,0005.89,0005.17
2023-07-15 20:32:00,SystemResetWarning,0834.9,5.00,000.00,029.4,027.6,000.0,037.6,030.8,31.5,0000.0,0012.86,0005.88,0005.16
2023-07-15 20:33:00,SystemResetWarning,0834.9,5.00,000.00,029.5,026.8,000.0,037.5,030.7,31.6,0000.0,0013.29,0005.88,0005.14
2023-07-15 20:34:00,SystemResetWarning,0835.3,5.00,000.00,029.4,025.3,000.0,037.4,030.3,31.6,0000.0,0013.91,0005.86,0005.12
2023-07-15 20:35:00,SystemResetWarning,0835.3,5.01,000.00,029.3,024.9,000.0,037.3,030.2,32.4,0000.0,0013.72,0005.86,0005.10
2023-07-15 20:36:00,SystemResetWarning,0835.3,5.01,000.00,029.2,025.1,000.0,037.3,030.1,31.7,0000.0,0014.19,0005.87,0005.08
2023-07-15 20:37:00,SystemResetWarning,0835.4,5.00,000.00,029.1,025.5,000.0,037.4,030.2,31.9,0000.0,0014.55,0005.88,0005.07
2023-07-15 20:38:00,SystemResetWarning,0835.2,5.00,000.00,029.1,026.0,000.0,037.4,030.3,32.2,0000.0,0014.59,0005.89,0005.07
2023-07-15 20:39:00,SystemResetWarning,0835.0,5.00,000.00,029.1,026.4,000.0,037.4,030.4,32.5,0000.0,0014.65,0005.90,0005.05
2023-07-15 20:40:00,SystemResetWarning,0834.9,5.01,000.00,029.2,026.8,000.0,037.5,030.5,32.4,0000.0,0014.37,0005.97,0005.06
2023-07-15 20:41:00,SystemResetWarning,0835.0,5.00,000.00,029.2,027.2,000.0,037.5,030.6,32.8,0000.0,0014.22,0005.98,0005.06
2023-07-15 20:42:00,SystemResetWarning,0834.9,4.99,000.00,029.2,027.5,000.0,037.5,030.7,32.8,0000.0,0014.18,0005.96,0005.04
2023-07-15 20:43:00,SystemResetWarning,0834.9,5.00,000.00,029.3,027.7,000.0,037.5,030.7,33.1,0000.0,0013.44,0005.96,0005.03
2023-07-15 20:44:00,SystemResetWarning,0835.1,4.99,000.00,029.3,027.2,000.0,037.5,030.7,33.2,0000.0,0013.70,0005.95,0005.03
2023-07-15 20:45:00,SystemResetWarning,0835.3,4.99,000.00,029.3,025.6,000.0,037.4,030.5,33.7,0000.0,0013.75,0005.95,0005.04
2023-07-15 20:46:00,SystemResetWarning,0834.8,5.01,000.00,029.2,024.9,000.0,037.3,030.3,33.1,0000.0,0013.34,0005.95,0005.04
2023-07-15 20:47:00,SystemResetWarning,0834.7,5.00,000.00,029.1,025.0,000.0,037.3,030.1,33.4,0000.0,0013.34,0005.95,0005.05
2023-07-15 20:48:00,SystemResetWarning,0834.8,4.99,000.00,029.0,025.4,000.0,037.3,030.1,34.7,0000.0,0012.64,0005.94,0005.06
2023-07-15 20:49:00,SystemResetWarning,0834.8,4.99,000.00,029.0,025.9,000.0,037.4,030.3,34.5,0000.0,0012.74,0005.93,0005.05
2023-07-15 20:50:00,SystemResetWarning,0834.8,5.01,000.00,029.1,026.4,000.0,037.4,030.4,35.3,0000.0,0012.44,0005.98,0005.07
2023-07-15 20:51:00,SystemResetWarning,0834.7,5.00,000.00,029.2,026.8,000.0,037.4,030.6,34.4,0000.0,0011.71,0005.99,0005.09
2023-07-15 20:52:00,SystemResetWarning,0834.7,5.00,000.00,029.4,027.2,000.0,037.4,030.7,34.6,0000.0,0011.64,0005.99,0005.11
2023-07-15 20:53:00,SystemResetWarning,0834.7,5.00,000.00,029.6,027.5,000.0,037.5,030.8,33.7,0000.0,0011.43,0006.00,0005.13
2023-07-15 20:54:00,SystemResetWarning,0834.7,4.99,000.00,029.7,027.7,000.0,037.5,030.9,33.1,0000.0,0011.35,0006.00,0005.15
2023-07-15 20:55:00,SystemResetWarning,0834.8,4.99,000.00,029.8,027.9,000.0,037.6,030.9,33.5,0000.0,0011.12,0006.02,0005.17
2023-07-15 20:56:00,SystemResetWarning,0834.7,5.00,000.00,029.9,026.9,000.0,037.6,030.8,33.0,0000.0,0010.51,0006.04,0005.19
2023-07-15 20:57:00,SystemResetWarning,0835.1,5.00,000.00,029.8,025.4,000.0,037.5,030.5,32.8,0000.0,0010.64,0006.04,0005.20
2023-07-15 20:58:00,SystemResetWarning,0835.1,5.01,000.00,029.7,025.0,000.0,037.5,030.4,33.2,0000.0,0011.25,0006.04,0005.22
2023-07-15 20:59:00,SystemResetWarning,0835.2,5.01,000.00,029.6,025.2,000.0,037.5,030.2,32.8,0000.0,0011.60,0006.09,0005.22
